Hourly Weather Golaszyn

Today, 17 May, Monday

Time Temperature Precipitation Wind Pressure Humidity
00:00 +10°C° 0 mm 2 mps 739 mmHg 95%
01:00 +10°C° 0 mm 2 mps 739 mmHg 95%
02:00 +9°C° 0 mm 2 mps 739 mmHg 96%
03:00 +9°C° 0 mm 2 mps 739 mmHg 96%
04:00 +8°C° 0 mm 2 mps 739 mmHg 96%
05:00 +10°C° 0 mm 2 mps 739 mmHg 90%
06:00 +13°C° 0 mm 1 mps 739 mmHg 85%
07:00 +14°C° 0 mm 1 mps 739 mmHg 80%
08:00 +16°C° 0 mm 1 mps 739 mmHg 73%
09:00 +18°C° 0 mm 1 mps 739 mmHg 66%
10:00 +19°C° 0 mm 1 mps 739 mmHg 59%
11:00 +20°C° 0 mm 1 mps 739 mmHg 56%
12:00 +21°C° 0 mm 1 mps 739 mmHg 53%
13:00 +21°C° 0 mm 1 mps 739 mmHg 50%
14:00 +21°C° 0 mm 1 mps 739 mmHg 51%
15:00 +21°C° 0 mm 1 mps 738 mmHg 52%
16:00 +21°C° 0 mm 1 mps 738 mmHg 54%
17:00 +19°C° 0 mm 1 mps 738 mmHg 58%
18:00 +18°C° 0 mm 1 mps 738 mmHg 63%
19:00 +15°C° 0 mm 1 mps 737 mmHg 68%
20:00 +15°C° 0 mm 1 mps 737 mmHg 69%
21:00 +14°C° 0 mm 1 mps 737 mmHg 71%
22:00 +13°C° 0 mm 2 mps 737 mmHg 72%
23:00 +13°C° 0 mm 1 mps 737 mmHg 73%

Tomorrow, 18 May, Tuesday

Time Temperature Precipitation Wind Pressure Humidity
00:00 +13°C° 0 mm 1 mps 737 mmHg 74%
01:00 +12°C° 0 mm 0 mps 737 mmHg 75%
02:00 +12°C° 0 mm 1 mps 737 mmHg 77%
03:00 +12°C° 0 mm 1 mps 737 mmHg 79%
04:00 +12°C° 0 mm 1 mps 737 mmHg 81%
05:00 +13°C° 0 mm 2 mps 737 mmHg 81%
06:00 +13°C° 0 mm 3 mps 738 mmHg 82%
07:00 +14°C° 0 mm 4 mps 738 mmHg 82%
08:00 +15°C° 0.1 mm 4 mps 738 mmHg 79%
09:00 +16°C° 0.1 mm 5 mps 738 mmHg 75%
10:00 +17°C° 0.1 mm 5 mps 738 mmHg 71%
11:00 +17°C° 0.5 mm 5 mps 738 mmHg 72%
12:00 +16°C° 0.5 mm 6 mps 738 mmHg 73%
13:00 +16°C° 0.5 mm 6 mps 739 mmHg 74%
14:00 +16°C° 0.1 mm 6 mps 739 mmHg 75%
15:00 +15°C° 0.1 mm 6 mps 739 mmHg 76%
16:00 +15°C° 0.1 mm 6 mps 739 mmHg 76%
17:00 +14°C° 0 mm 6 mps 739 mmHg 79%
18:00 +13°C° 0 mm 6 mps 740 mmHg 81%
19:00 +11°C° 0 mm 6 mps 740 mmHg 84%
20:00 +12°C° 0 mm 5 mps 740 mmHg 86%
21:00 +10°C° 0 mm 5 mps 740 mmHg 87%
22:00 +10°C° 0 mm 5 mps 740 mmHg 89%
23:00 +9°C° 0 mm 5 mps 741 mmHg 90%

Day after tomorrow, 19 May, Wednesday

Time Temperature Precipitation Wind Pressure Humidity
00:00 +9°C° 0 mm 5 mps 741 mmHg 92%
01:00 +8°C° 0 mm 5 mps 741 mmHg 94%
02:00 +8°C° 0 mm 5 mps 741 mmHg 93%
03:00 +8°C° 0 mm 5 mps 741 mmHg 93%
04:00 +8°C° 0 mm 5 mps 741 mmHg 92%
05:00 +9°C° 0 mm 5 mps 742 mmHg 88%
06:00 +10°C° 0 mm 6 mps 742 mmHg 83%
07:00 +11°C° 0 mm 6 mps 742 mmHg 79%
08:00 +13°C° 0 mm 6 mps 742 mmHg 74%
09:00 +14°C° 0 mm 6 mps 743 mmHg 69%
10:00 +15°C° 0 mm 5 mps 743 mmHg 64%
11:00 +15°C° 0.1 mm 5 mps 743 mmHg 66%
12:00 +15°C° 0.1 mm 5 mps 743 mmHg 69%
13:00 +14°C° 0.1 mm 4 mps 743 mmHg 72%
14:00 +14°C° 0.1 mm 4 mps 743 mmHg 71%
15:00 +15°C° 0.1 mm 4 mps 743 mmHg 71%
16:00 +15°C° 0.1 mm 4 mps 743 mmHg 70%
17:00 +14°C° 0.1 mm 4 mps 743 mmHg 75%
18:00 +13°C° 0.1 mm 3 mps 743 mmHg 81%
19:00 +11°C° 0.1 mm 3 mps 743 mmHg 86%
20:00 +11°C° 0 mm 3 mps 743 mmHg 88%
21:00 +10°C° 0 mm 3 mps 743 mmHg 91%
22:00 +9°C° 0 mm 3 mps 743 mmHg 94%
23:00 +9°C° 0 mm 3 mps 743 mmHg 94%

20 May, Thursday

Time Temperature Precipitation Wind Pressure Humidity
00:00 +8°C° 0 mm 3 mps 743 mmHg 95%
01:00 +8°C° 0 mm 3 mps 743 mmHg 95%
02:00 +7°C° 0 mm 3 mps 743 mmHg 96%
03:00 +6°C° 0 mm 4 mps 744 mmHg 97%
04:00 +6°C° 0 mm 4 mps 744 mmHg 97%
05:00 +7°C° 0 mm 5 mps 744 mmHg 92%
06:00 +8°C° 0 mm 5 mps 744 mmHg 87%
07:00 +9°C° 0 mm 6 mps 744 mmHg 82%
08:00 +10°C° 0 mm 6 mps 744 mmHg 77%
09:00 +13°C° 0 mm 6 mps 744 mmHg 72%
10:00 +14°C° 0 mm 7 mps 744 mmHg 67%
11:00 +14°C° 0.1 mm 7 mps 744 mmHg 65%
12:00 +15°C° 0.1 mm 7 mps 744 mmHg 63%
13:00 +15°C° 0.1 mm 7 mps 744 mmHg 61%
14:00 +15°C° 0.1 mm 7 mps 744 mmHg 63%
15:00 +15°C° 0.1 mm 7 mps 744 mmHg 65%
16:00 +15°C° 0.1 mm 7 mps 744 mmHg 67%
17:00 +14°C° 0 mm 7 mps 744 mmHg 69%
18:00 +11°C° 0 mm 6 mps 744 mmHg 71%
19:00 +10°C° 0 mm 5 mps 744 mmHg 73%
20:00 +10°C° 0 mm 6 mps 745 mmHg 73%
21:00 +9°C° 0 mm 6 mps 745 mmHg 74%
22:00 +8°C° 0 mm 6 mps 745 mmHg 74%
23:00 +7°C° 0 mm 6 mps 746 mmHg 78%

21 May, Friday

Time Temperature Precipitation Wind Pressure Humidity
00:00 +7°C° 0 mm 5 mps 746 mmHg 82%
01:00 +6°C° 0 mm 5 mps 746 mmHg 85%
02:00 +6°C° 0 mm 5 mps 746 mmHg 84%
03:00 +5°C° 0 mm 5 mps 746 mmHg 84%
04:00 +3°C° 0 mm 6 mps 747 mmHg 83%
05:00 +4°C° 0 mm 6 mps 747 mmHg 79%
06:00 +7°C° 0 mm 6 mps 747 mmHg 74%
07:00 +8°C° 0 mm 7 mps 747 mmHg 70%
08:00 +9°C° 0 mm 7 mps 748 mmHg 64%
09:00 +10°C° 0 mm 7 mps 748 mmHg 58%
10:00 +11°C° 0 mm 7 mps 748 mmHg 51%
11:00 +11°C° 0 mm 7 mps 747 mmHg 50%
12:00 +12°C° 0 mm 7 mps 747 mmHg 48%
13:00 +14°C° 0 mm 7 mps 747 mmHg 47%
14:00 +14°C° 0 mm 6 mps 747 mmHg 49%
15:00 +14°C° 0 mm 6 mps 747 mmHg 51%
16:00 +14°C° 0 mm 6 mps 747 mmHg 54%
17:00 +12°C° 0 mm 5 mps 747 mmHg 60%
18:00 +11°C° 0 mm 4 mps 747 mmHg 67%
19:00 +10°C° 0 mm 3 mps 747 mmHg 74%
20:00 +9°C° 0 mm 3 mps 747 mmHg 77%
21:00 +8°C° 0 mm 3 mps 747 mmHg 80%
22:00 +7°C° 0 mm 3 mps 747 mmHg 83%
23:00 +7°C° 0 mm 3 mps 747 mmHg 82%

22 May, Saturday

Time Temperature Precipitation Wind Pressure Humidity
00:00 +7°C° 0 mm 3 mps 747 mmHg 82%
01:00 +7°C° 0 mm 3 mps 747 mmHg 81%
02:00 +7°C° 0 mm 3 mps 746 mmHg 81%
03:00 +7°C° 0 mm 3 mps 746 mmHg 81%
04:00 +7°C° 0 mm 3 mps 746 mmHg 81%
05:00 +9°C° 0 mm 3 mps 746 mmHg 79%
06:00 +10°C° 0 mm 3 mps 746 mmHg 76%
07:00 +11°C° 0 mm 4 mps 746 mmHg 74%
08:00 +13°C° 0 mm 4 mps 746 mmHg 69%
09:00 +14°C° 0 mm 5 mps 746 mmHg 63%
10:00 +16°C° 0 mm 5 mps 746 mmHg 58%
11:00 +17°C° 0 mm 5 mps 745 mmHg 55%
12:00 +19°C° 0 mm 5 mps 745 mmHg 52%
13:00 +20°C° 0 mm 5 mps 745 mmHg 50%
14:00 +20°C° 0 mm 5 mps 745 mmHg 52%
15:00 +20°C° 0 mm 4 mps 745 mmHg 55%
16:00 +20°C° 0 mm 4 mps 744 mmHg 58%
17:00 +19°C° 0.1 mm 4 mps 744 mmHg 63%
18:00 +17°C° 0.1 mm 3 mps 744 mmHg 68%
19:00 +16°C° 0.1 mm 3 mps 744 mmHg 73%
20:00 +14°C° 0.3 mm 3 mps 745 mmHg 78%
21:00 +14°C° 0.3 mm 2 mps 745 mmHg 84%
22:00 +13°C° 0.3 mm 2 mps 745 mmHg 90%
23:00 +13°C° 0.3 mm 2 mps 745 mmHg 91%
Show more